Regional Weather Roundup
Issued by NWS

Home | Current Version | Previous Version | Graphics & Text | Print | Product List | Glossary On
Versions: 1 2 3 4 5 6 7 8 9 10 11 12 13 14 15 16 17 18 19 20 21 22 23 24 25 26 27 28 29 30 31 32 33 34 35 36 37 38 39 40 41 42 43 44 45 46 47 48 49 50
000
ASUS43 KOAX 240310
RWRNE

WEATHER ROUNDUP FOR NEBRASKA
NATIONAL WEATHER SERVICE OMAHA NE
1000 PM CDT TUE MAY 23 2017

NOTES: SATELLITE DATA IS BEING USED TO AUGMENT CLOUD COVER ABOVE
       12000 FEET.
       "FAIR" INDICATES FEW OR NO CLOUDS BELOW 12,000 FEET WITH NO
       SIGNIFICANT WEATHER AND/OR OBSTRUCTIONS TO VISIBILITY.

  * THESE STATIONS DO NOT REPORT WEATHER SUCH AS RAIN...SNOW OR FOG.

NEZ001>004-019>022-054>056-240400-
NEBRASKA PANHANDLE

CITY           SKY/WX    TMP DP  RH WIND       PRES   REMARKS
SCOTTSBLUFF    CLOUDY    48  39  71 NE6       30.04S
ALLIANCE       CLEAR     46  37  71 N7        30.03S
CHADRON        CLEAR     45  40  82 CALM      30.02F
GORDON         FAIR      40  35  84 NE6       30.02F
SIDNEY         CLEAR     46  36  68 N7        30.05S
$$

NEZ057>060-069>072-079>082-240400-
SOUTHWEST NEBRASKA

CITY           SKY/WX    TMP DP  RH WIND       PRES   REMARKS
NORTH PLATTE   CLEAR     48  37  65 N6        29.99S
IMPERIAL       CLEAR     46  37  71 N7        30.01S
LEXINGTON      CLEAR     48  40  75 N9        29.97S
MCCOOK         CLEAR     50  36  58 N12       29.99R
OGALLALA       CLEAR     46  37  68 N7        30.02R
$$

NEZ005>010-023>029-035>040-094-240400-
NORTH CENTRAL NEBRASKA

CITY           SKY/WX    TMP DP  RH WIND       PRES   REMARKS
VALENTINE      CLEAR     48  37  65 N6        30.00S
AINSWORTH      CLOUDY    49  42  76 N9        29.99S
BROKEN BOW     PTCLDY    48  40  73 N7        29.96S
O`NEILL        CLOUDY    50  43  76 N8        29.95S
ORD            CLOUDY    51  40  65 N13       29.94S
THEDFORD       CLEAR     47  40  75 N7        30.01R
$$

NEZ041-046>049-061>064-073>077-083>087-240400-
SOUTH CENTRAL NEBRASKA

CITY           SKY/WX    TMP DP  RH WIND       PRES   REMARKS
GRAND ISLAND   CLOUDY    51  43  74 N14       29.93S
AURORA         MOCLDY    51  42  72 N15G21    29.92S
HASTINGS       MOCLDY    51  41  68 N13       29.94R
HEBRON         MOCLDY    54  44  68 N7        29.90S
HOLDREGE       PTCLDY    49  41  73 N5        29.96R
KEARNEY *      MOCLDY    52  37  58 N13       29.95S
YORK           CLOUDY    50  43  76 NW15      29.90S
$$

NEZ011>018-030>034-042>045-240400-
NORTHEAST NEBRASKA

CITY           SKY/WX    TMP DP  RH WIND       PRES   REMARKS
NORFOLK        CLOUDY    50  45  83 NW14      29.88S
ALBION         CLOUDY    51  45  79 NW9       29.92S
BLAIR          CLOUDY    51  48  90 NW8       29.83S
FREMONT        CLOUDY    51  46  82 NW13      29.86S
TEKAMAH        CLOUDY    51  48  89 NW9       29.84S
WAYNE          CLOUDY    51  51  98 N13G21    29.88S
$$

NEZ050>053-065>068-078-088>093-240400-
SOUTHEAST NEBRASKA

CITY           SKY/WX    TMP DP  RH WIND       PRES   REMARKS
LINCOLN        MOCLDY    53  45  74 N17       29.88R
OMAHA EPPLEY   CLOUDY    52  46  80 N10       29.83S
BEATRICE       MOCLDY    51  45  79 NW7       29.87R
FALLS CITY     CLOUDY    52  47  83 NW7       29.82S
NEBRASKA CITY  CLOUDY    53  46  76 NW9       29.84R
PLATTSMOUTH    DRIZZLE   52  45  78 NW8       29.83S
$$

NEZ044-045-051>053-067-240400-
OMAHA AREA

CITY           SKY/WX    TMP DP  RH WIND       PRES   REMARKS
OMAHA EPPLEY   CLOUDY    52  46  80 N10       29.83S
BLAIR          CLOUDY    51  48  90 NW8       29.83S
FREMONT        CLOUDY    51  46  82 NW13      29.86S
MILLARD        CLOUDY    54  49  81 NW7       29.84S
OFFUTT AFB     CLOUDY    51  47  86 NW7       29.82S
PLATTSMOUTH    DRIZZLE   52  45  78 NW8       29.83S
WAHOO          CLOUDY    51  45  80 NW12      29.85S
$$




USA.gov is the U.S. government's official web portal to all federal, state and local government web resources and services.